Time,TemperatureF,DewpointF,PressureIn,WindDirection,WindDirectionDegrees,WindSpeedMPH,WindSpeedGustMPH,Humidity,HourlyPrecipIn,Conditions,Clouds,dailyrainin,SoftwareType,DateUTC
2013-06-02 00:01:00,73.0,61.9,29.89,SW,225,1.6,1.6,68,0.00,,,0.00,meteobridge,2013-06-02 04:01:00,
2013-06-02 00:02:00,73.0,61.9,29.89,SW,225,1.6,1.6,68,0.00,,,0.00,meteobridge,2013-06-02 04:02:00,
2013-06-02 00:04:00,71.8,60.6,29.89,West,270,0.0,0.0,68,0.00,,,0.00,meteobridge,2013-06-02 04:04:00,
2013-06-02 00:08:00,71.4,61.2,29.89,West,270,0.0,0.7,70,0.00,,,0.00,meteobridge,2013-06-02 04:08:00,
2013-06-02 00:13:00,71.6,61.7,29.89,West,270,0.0,0.0,71,0.00,,,0.00,meteobridge,2013-06-02 04:13:00,
2013-06-02 00:18:00,72.3,62.1,29.89,SE,135,6.9,6.9,70,0.00,,,0.00,meteobridge,2013-06-02 04:18:00,
2013-06-02 00:24:00,72.7,61.9,29.88,West,270,0.0,0.7,69,0.00,,,0.00,meteobridge,2013-06-02 04:24:00,
2013-06-02 00:30:00,72.9,62.1,29.88,SE,135,0.0,1.6,69,0.00,,,0.00,meteobridge,2013-06-02 04:30:00,
2013-06-02 00:35:00,74.5,63.1,29.88,West,270,0.0,1.6,68,0.00,,,0.00,meteobridge,2013-06-02 04:35:00,
2013-06-02 00:41:00,73.6,61.9,29.88,South,180,0.7,1.6,67,0.00,,,0.00,meteobridge,2013-06-02 04:41:00,
2013-06-02 00:47:00,73.9,62.2,29.88,SE,135,2.2,2.2,67,0.00,,,0.00,meteobridge,2013-06-02 04:47:00,
2013-06-02 00:52:00,72.5,61.0,29.88,South,180,1.6,4.5,67,0.00,,,0.00,meteobridge,2013-06-02 04:52:00,
2013-06-02 00:58:00,72.1,61.0,29.88,South,180,1.6,1.6,68,0.00,,,0.00,meteobridge,2013-06-02 04:58:00,
2013-06-02 01:04:00,71.6,60.8,29.87,West,270,0.7,1.6,69,0.00,,,0.00,meteobridge,2013-06-02 05:04:00,
2013-06-02 01:09:00,70.9,61.0,29.87,West,270,0.7,0.7,71,0.00,,,0.00,meteobridge,2013-06-02 05:09:00,
2013-06-02 01:15:00,71.1,61.5,29.87,SE,135,1.6,1.6,72,0.00,,,0.00,meteobridge,2013-06-02 05:15:00,
2013-06-02 01:21:00,71.1,61.5,29.87,South,180,0.0,0.0,72,0.00,,,0.00,meteobridge,2013-06-02 05:21:00,
2013-06-02 01:26:00,71.1,61.5,29.87,West,270,0.0,0.0,72,0.00,,,0.00,meteobridge,2013-06-02 05:26:00,
2013-06-02 01:32:00,71.1,61.5,29.87,North,0,0.0,0.0,72,0.00,,,0.00,meteobridge,2013-06-02 05:32:00,
2013-06-02 01:37:00,71.6,61.7,29.86,South,180,0.0,0.7,71,0.00,,,0.00,meteobridge,2013-06-02 05:37:00,
2013-06-02 01:43:00,70.2,60.6,29.86,North,0,0.0,0.0,72,0.00,,,0.00,meteobridge,2013-06-02 05:43:00,
2013-06-02 01:49:00,69.6,61.0,29.86,North,0,0.0,0.0,74,0.00,,,0.00,meteobridge,2013-06-02 05:49:00,
2013-06-02 01:54:00,69.6,61.3,29.86,West,270,0.0,0.0,75,0.00,,,0.00,meteobridge,2013-06-02 05:54:00,
2013-06-02 02:00:00,69.4,61.2,29.86,East,90,0.0,0.0,75,0.00,,,0.00,meteobridge,2013-06-02 06:00:00,
2013-06-02 02:06:00,69.1,61.2,29.86,North,0,0.0,0.0,76,0.00,,,0.00,meteobridge,2013-06-02 06:06:00,
2013-06-02 02:11:00,68.9,61.0,29.85,South,180,0.0,0.0,76,0.00,,,0.00,meteobridge,2013-06-02 06:11:00,
2013-06-02 02:17:00,68.7,61.2,29.86,North,0,0.0,0.0,77,0.00,,,0.00,meteobridge,2013-06-02 06:17:00,
2013-06-02 02:23:00,69.1,61.9,29.85,East,90,1.6,1.6,78,0.00,,,0.00,meteobridge,2013-06-02 06:23:00,
2013-06-02 02:28:00,70.0,62.1,29.85,West,270,0.0,0.0,76,0.00,,,0.00,meteobridge,2013-06-02 06:28:00,
2013-06-02 02:34:00,69.4,61.9,29.85,East,90,0.0,1.6,77,0.00,,,0.00,meteobridge,2013-06-02 06:34:00,
2013-06-02 02:39:00,68.7,61.2,29.85,West,270,0.0,1.6,77,0.00,,,0.00,meteobridge,2013-06-02 06:39:00,
2013-06-02 02:45:00,68.4,61.2,29.85,West,270,0.0,0.0,78,0.00,,,0.00,meteobridge,2013-06-02 06:45:00,
2013-06-02 02:51:00,68.4,61.2,29.85,West,270,0.0,0.0,78,0.00,,,0.00,meteobridge,2013-06-02 06:51:00,
2013-06-02 02:56:00,68.2,61.3,29.85,West,270,0.0,0.0,79,0.00,,,0.00,meteobridge,2013-06-02 06:56:00,
2013-06-02 03:02:00,68.2,61.7,29.85,NE,45,0.0,1.6,80,0.00,,,0.00,meteobridge,2013-06-02 07:02:00,
2013-06-02 03:08:00,68.0,61.5,29.85,North,0,0.0,0.0,80,0.00,,,0.00,meteobridge,2013-06-02 07:08:00,
2013-06-02 03:13:00,68.0,61.5,29.85,SW,225,1.6,1.6,80,0.00,,,0.00,meteobridge,2013-06-02 07:13:00,
2013-06-02 03:19:00,68.4,62.2,29.85,SE,135,3.1,3.1,81,0.00,,,0.00,meteobridge,2013-06-02 07:19:00,
2013-06-02 03:25:00,70.2,63.3,29.85,North,0,0.7,2.2,79,0.00,,,0.00,meteobridge,2013-06-02 07:25:00,
2013-06-02 03:30:00,70.2,61.9,29.85,North,0,3.1,3.1,75,0.00,,,0.00,meteobridge,2013-06-02 07:30:00,
2013-06-02 03:36:00,71.8,62.6,29.85,SE,135,1.6,3.8,73,0.00,,,0.00,meteobridge,2013-06-02 07:36:00,
2013-06-02 03:41:00,70.0,61.0,29.85,West,270,0.0,0.0,73,0.00,,,0.00,meteobridge,2013-06-02 07:41:00,
2013-06-02 03:47:00,69.6,61.3,29.85,SE,135,2.2,3.1,75,0.00,,,0.00,meteobridge,2013-06-02 07:47:00,
2013-06-02 03:53:00,69.8,61.5,29.85,South,180,0.0,2.2,75,0.00,,,0.00,meteobridge,2013-06-02 07:53:00,
2013-06-02 03:58:00,69.8,61.5,29.85,East,90,1.6,2.2,75,0.00,,,0.00,meteobridge,2013-06-02 07:58:00,
2013-06-02 04:04:00,69.4,61.5,29.85,South,180,0.0,0.0,76,0.00,,,0.00,meteobridge,2013-06-02 08:04:00,
2013-06-02 04:10:00,69.1,61.2,29.85,South,180,0.0,1.6,76,0.00,,,0.00,meteobridge,2013-06-02 08:10:00,
2013-06-02 04:15:00,68.7,60.8,29.85,West,270,0.0,0.0,76,0.00,,,0.00,meteobridge,2013-06-02 08:15:00,
2013-06-02 04:21:00,68.0,60.4,29.85,West,270,0.0,0.0,77,0.00,,,0.00,meteobridge,2013-06-02 08:21:00,
2013-06-02 04:27:00,68.0,60.4,29.85,West,270,0.0,0.0,77,0.00,,,0.00,meteobridge,2013-06-02 08:27:00,
2013-06-02 04:32:00,68.0,60.8,29.85,West,270,0.0,0.0,78,0.00,,,0.00,meteobridge,2013-06-02 08:32:00,
2013-06-02 04:37:00,68.0,60.8,29.85,West,270,0.0,0.0,78,0.00,,,0.00,meteobridge,2013-06-02 08:37:00,
2013-06-02 04:43:00,67.3,61.2,29.85,South,180,0.0,0.0,81,0.00,,,0.00,meteobridge,2013-06-02 08:43:00,
2013-06-02 04:48:00,68.7,61.9,29.85,South,180,0.0,0.0,79,0.00,,,0.00,meteobridge,2013-06-02 08:48:00,
2013-06-02 04:54:00,69.1,61.5,29.85,South,180,0.0,1.6,77,0.00,,,0.00,meteobridge,2013-06-02 08:54:00,
2013-06-02 05:00:00,68.0,60.4,29.85,South,180,0.7,0.7,77,0.00,,,0.00,meteobridge,2013-06-02 09:00:00,
2013-06-02 05:05:00,67.8,60.6,29.85,South,180,0.0,1.6,78,0.00,,,0.00,meteobridge,2013-06-02 09:05:00,
2013-06-02 05:11:00,68.2,61.3,29.85,South,180,0.7,0.7,79,0.00,,,0.00,meteobridge,2013-06-02 09:11:00,
2013-06-02 05:17:00,68.4,61.5,29.85,South,180,0.0,1.6,79,0.00,,,0.00,meteobridge,2013-06-02 09:17:00,
2013-06-02 05:22:00,68.2,61.7,29.85,South,180,0.0,0.0,80,0.00,,,0.00,meteobridge,2013-06-02 09:22:00,
2013-06-02 05:28:00,68.4,61.9,29.85,SW,225,2.2,2.2,80,0.00,,,0.00,meteobridge,2013-06-02 09:28:00,
2013-06-02 05:34:00,68.2,61.7,29.84,South,180,2.2,3.1,80,0.00,,,0.00,meteobridge,2013-06-02 09:34:00,
2013-06-02 05:39:00,68.2,61.7,29.85,SW,225,1.6,1.6,80,0.00,,,0.00,meteobridge,2013-06-02 09:39:00,
2013-06-02 05:45:00,68.2,61.7,29.85,SW,225,0.7,0.7,80,0.00,,,0.00,meteobridge,2013-06-02 09:45:00,
2013-06-02 05:50:00,68.0,61.5,29.85,South,180,0.0,0.0,80,0.00,,,0.00,meteobridge,2013-06-02 09:50:00,
2013-06-02 05:56:00,68.0,61.5,29.85,South,180,0.0,1.6,80,0.00,,,0.00,meteobridge,2013-06-02 09:56:00,
2013-06-02 06:02:00,68.2,61.7,29.85,South,180,0.0,0.0,80,0.00,,,0.00,meteobridge,2013-06-02 10:02:00,
2013-06-02 06:07:00,68.4,61.9,29.85,South,180,0.0,0.0,80,0.00,,,0.00,meteobridge,2013-06-02 10:07:00,
2013-06-02 06:13:00,68.4,61.9,29.85,South,180,0.0,1.6,80,0.00,,,0.00,meteobridge,2013-06-02 10:13:00,
2013-06-02 06:19:00,70.3,63.1,29.85,North,0,0.0,2.2,78,0.00,,,0.00,meteobridge,2013-06-02 10:19:00,
2013-06-02 06:24:00,70.9,62.6,29.85,West,270,0.0,0.7,75,0.00,,,0.00,meteobridge,2013-06-02 10:24:00,
2013-06-02 06:30:00,70.2,61.5,29.85,South,180,0.0,3.1,74,0.00,,,0.00,meteobridge,2013-06-02 10:30:00,
2013-06-02 06:36:00,69.4,61.2,29.84,West,270,2.2,3.1,75,0.00,,,0.00,meteobridge,2013-06-02 10:36:00,
2013-06-02 06:41:00,69.4,61.5,29.84,South,180,0.0,3.8,76,0.00,,,0.00,meteobridge,2013-06-02 10:41:00,
2013-06-02 06:47:00,69.4,61.5,29.84,West,270,3.8,3.8,76,0.00,,,0.00,meteobridge,2013-06-02 10:47:00,
2013-06-02 06:53:00,69.8,61.5,29.84,SE,135,2.2,3.1,75,0.00,,,0.00,meteobridge,2013-06-02 10:53:00,
2013-06-02 06:58:00,70.0,61.7,29.84,SW,225,3.1,3.1,75,0.00,,,0.00,meteobridge,2013-06-02 10:58:00,
2013-06-02 07:04:00,70.3,62.1,29.84,South,180,2.2,3.8,75,0.00,,,0.00,meteobridge,2013-06-02 11:04:00,
2013-06-02 07:09:00,70.5,61.9,29.85,SW,225,3.8,3.8,74,0.00,,,0.00,meteobridge,2013-06-02 11:09:00,
2013-06-02 07:15:00,70.7,62.1,29.84,South,180,2.2,2.2,74,0.00,,,0.00,meteobridge,2013-06-02 11:15:00,
2013-06-02 07:21:00,71.4,62.8,29.85,South,180,0.7,5.4,74,0.00,,,0.00,meteobridge,2013-06-02 11:21:00,
2013-06-02 07:26:00,72.5,62.6,29.85,SE,135,6.0,6.0,71,0.00,,,0.00,meteobridge,2013-06-02 11:26:00,
2013-06-02 07:32:00,74.3,63.5,29.85,North,0,1.6,6.9,69,0.00,,,0.00,meteobridge,2013-06-02 11:32:00,
2013-06-02 07:38:00,76.1,63.9,29.85,East,90,3.1,3.1,66,0.00,,,0.00,meteobridge,2013-06-02 11:38:00,
2013-06-02 07:43:00,73.9,61.9,29.85,SE,135,4.5,6.9,66,0.00,,,0.00,meteobridge,2013-06-02 11:43:00,
2013-06-02 07:49:00,75.2,63.1,29.84,SE,135,3.8,3.8,66,0.00,,,0.00,meteobridge,2013-06-02 11:49:00,
2013-06-02 07:55:00,74.8,62.8,29.85,SE,135,6.0,6.0,66,0.00,,,0.00,meteobridge,2013-06-02 11:55:00,
2013-06-02 08:00:00,76.3,63.7,29.85,SE,135,3.1,3.1,65,0.00,,,0.00,meteobridge,2013-06-02 12:00:00,
2013-06-02 08:06:00,75.6,63.0,29.84,South,180,0.0,3.1,65,0.00,,,0.00,meteobridge,2013-06-02 12:06:00,
2013-06-02 08:11:00,78.6,64.9,29.84,South,180,1.6,1.6,63,0.00,,,0.00,meteobridge,2013-06-02 12:11:00,
2013-06-02 08:17:00,76.8,62.8,29.84,South,180,2.2,2.2,62,0.00,,,0.00,meteobridge,2013-06-02 12:17:00,
2013-06-02 08:23:00,75.7,62.2,29.84,SE,135,6.9,7.6,63,0.00,,,0.00,meteobridge,2013-06-02 12:23:00,
2013-06-02 08:28:00,77.0,63.0,29.84,East,90,5.4,10.7,62,0.00,,,0.00,meteobridge,2013-06-02 12:28:00,
2013-06-02 08:34:00,77.0,63.0,29.84,SW,225,3.8,3.8,62,0.00,,,0.00,meteobridge,2013-06-02 12:34:00,
2013-06-02 08:40:00,77.9,63.3,29.84,North,0,5.4,12.1,61,0.00,,,0.00,meteobridge,2013-06-02 12:40:00,
2013-06-02 08:45:00,78.6,64.0,29.83,SW,225,9.2,9.2,61,0.00,,,0.00,meteobridge,2013-06-02 12:45:00,
2013-06-02 08:51:00,78.6,63.1,29.83,South,180,9.2,9.2,59,0.00,,,0.00,meteobridge,2013-06-02 12:51:00,
2013-06-02 08:57:00,78.4,63.0,29.83,South,180,6.0,9.8,59,0.00,,,0.00,meteobridge,2013-06-02 12:57:00,
2013-06-02 09:02:00,79.7,63.1,29.82,South,180,4.5,4.5,57,0.00,,,0.00,meteobridge,2013-06-02 13:02:00,
2013-06-02 09:08:00,79.5,63.5,29.83,South,180,5.4,5.4,58,0.00,,,0.00,meteobridge,2013-06-02 13:08:00,
2013-06-02 09:13:00,79.9,63.9,29.82,West,270,3.8,7.6,58,0.00,,,0.00,meteobridge,2013-06-02 13:13:00,
2013-06-02 09:19:00,79.7,63.1,29.82,SE,135,3.1,3.8,57,0.00,,,0.00,meteobridge,2013-06-02 13:19:00,
2013-06-02 09:25:00,78.6,62.6,29.82,South,180,7.6,7.6,58,0.00,,,0.00,meteobridge,2013-06-02 13:25:00,
2013-06-02 09:30:00,79.7,63.1,29.82,South,180,3.1,6.9,57,0.00,,,0.00,meteobridge,2013-06-02 13:30:00,
2013-06-02 09:36:00,80.8,63.7,29.81,SW,225,3.8,5.4,56,0.00,,,0.00,meteobridge,2013-06-02 13:36:00,
2013-06-02 09:42:00,81.5,64.2,29.82,NE,45,3.8,5.4,56,0.00,,,0.00,meteobridge,2013-06-02 13:42:00,
2013-06-02 09:47:00,81.3,63.7,29.81,East,90,1.6,9.2,55,0.00,,,0.00,meteobridge,2013-06-02 13:47:00,
2013-06-02 09:53:00,81.5,63.9,29.81,South,180,9.2,9.2,55,0.00,,,0.00,meteobridge,2013-06-02 13:53:00,
2013-06-02 09:59:00,81.7,63.9,29.81,SE,135,4.5,6.9,55,0.00,,,0.00,meteobridge,2013-06-02 13:59:00,
2013-06-02 10:04:00,82.4,64.6,29.81,East,90,4.5,6.0,55,0.00,,,0.00,meteobridge,2013-06-02 14:04:00,
2013-06-02 10:10:00,82.4,64.6,29.81,East,90,3.1,8.3,55,0.00,,,0.00,meteobridge,2013-06-02 14:10:00,
2013-06-02 10:16:00,82.6,64.2,29.80,South,180,4.5,4.5,54,0.00,,,0.00,meteobridge,2013-06-02 14:16:00,
2013-06-02 10:21:00,83.5,65.7,29.80,North,0,6.9,6.9,55,0.00,,,0.00,meteobridge,2013-06-02 14:21:00,
2013-06-02 10:27:00,84.6,65.5,29.81,SE,135,5.4,5.4,53,0.00,,,0.00,meteobridge,2013-06-02 14:27:00,
2013-06-02 10:32:00,83.3,64.9,29.81,West,270,12.1,12.1,54,0.00,,,0.00,meteobridge,2013-06-02 14:32:00,
2013-06-02 10:38:00,83.1,64.2,29.80,West,270,6.9,9.2,53,0.00,,,0.00,meteobridge,2013-06-02 14:38:00,
2013-06-02 10:44:00,83.8,64.9,29.80,SE,135,9.8,9.8,53,0.00,,,0.00,meteobridge,2013-06-02 14:44:00,
2013-06-02 10:49:00,84.0,65.7,29.80,South,180,6.9,9.8,54,0.00,,,0.00,meteobridge,2013-06-02 14:49:00,
2013-06-02 10:55:00,83.3,64.4,29.81,SW,225,6.9,9.8,53,0.00,,,0.00,meteobridge,2013-06-02 14:55:00,
2013-06-02 11:01:00,83.8,64.9,29.80,SE,135,7.6,7.6,53,0.00,,,0.00,meteobridge,2013-06-02 15:01:00,
2013-06-02 11:06:00,85.5,65.3,29.81,South,180,11.4,15.2,51,0.00,,,0.00,meteobridge,2013-06-02 15:06:00,
2013-06-02 11:11:00,85.1,64.9,29.81,East,90,6.0,9.8,51,0.00,,,0.00,meteobridge,2013-06-02 15:11:00,
2013-06-02 11:17:00,84.9,64.2,29.80,SW,225,3.1,8.3,50,0.00,,,0.00,meteobridge,2013-06-02 15:17:00,
2013-06-02 11:22:00,85.5,64.8,29.80,West,270,9.8,9.8,50,0.00,,,0.00,meteobridge,2013-06-02 15:22:00,
2013-06-02 11:28:00,86.2,64.8,29.80,SW,225,7.6,9.2,49,0.00,,,0.00,meteobridge,2013-06-02 15:28:00,
2013-06-02 11:34:00,86.9,65.5,29.80,SE,135,5.4,5.4,49,0.00,,,0.00,meteobridge,2013-06-02 15:34:00,
2013-06-02 11:39:00,87.4,65.8,29.80,SE,135,4.5,6.0,49,0.00,,,0.00,meteobridge,2013-06-02 15:39:00,
2013-06-02 11:45:00,88.0,65.8,29.80,West,270,3.8,5.4,48,0.00,,,0.00,meteobridge,2013-06-02 15:45:00,
2013-06-02 11:51:00,86.4,64.4,29.80,North,0,2.2,7.6,48,0.00,,,0.00,meteobridge,2013-06-02 15:51:00,
2013-06-02 11:56:00,87.6,66.0,29.80,South,180,5.4,5.4,49,0.00,,,0.00,meteobridge,2013-06-02 15:56:00,
2013-06-02 12:02:00,85.6,64.9,29.80,South,180,5.4,11.4,50,0.00,,,0.00,meteobridge,2013-06-02 16:02:00,
2013-06-02 12:08:00,89.1,66.7,29.80,South,180,2.2,4.5,48,0.00,,,0.00,meteobridge,2013-06-02 16:08:00,
2013-06-02 12:13:00,85.6,64.2,29.80,SE,135,5.4,12.1,49,0.00,,,0.00,meteobridge,2013-06-02 16:13:00,
2013-06-02 12:19:00,86.4,64.4,29.80,NE,45,9.2,11.4,48,0.00,,,0.00,meteobridge,2013-06-02 16:19:00,
2013-06-02 12:25:00,87.6,65.5,29.80,SE,135,11.4,13.0,48,0.00,,,0.00,meteobridge,2013-06-02 16:25:00,
2013-06-02 12:30:00,88.7,65.8,29.79,South,180,4.5,6.9,47,0.00,,,0.00,meteobridge,2013-06-02 16:30:00,
2013-06-02 12:36:00,87.3,65.1,29.80,SE,135,15.2,18.3,48,0.00,,,0.00,meteobridge,2013-06-02 16:36:00,
2013-06-02 12:41:00,88.0,65.3,29.79,South,180,13.0,13.0,47,0.00,,,0.00,meteobridge,2013-06-02 16:41:00,
2013-06-02 12:47:00,89.4,66.6,29.79,North,0,9.2,9.2,47,0.00,,,0.00,meteobridge,2013-06-02 16:47:00,
2013-06-02 12:53:00,88.2,64.8,29.79,SE,135,6.9,6.9,46,0.00,,,0.00,meteobridge,2013-06-02 16:53:00,
2013-06-02 12:58:00,90.3,66.0,29.79,SE,135,13.0,13.0,45,0.00,,,0.00,meteobridge,2013-06-02 16:58:00,
2013-06-02 13:04:00,89.2,65.7,29.78,SW,225,12.1,12.1,46,0.00,,,0.00,meteobridge,2013-06-02 17:04:00,
2013-06-02 13:10:00,91.2,67.5,29.78,South,180,6.0,6.0,46,0.00,,,0.00,meteobridge,2013-06-02 17:10:00,
2013-06-02 13:15:00,89.1,66.7,29.78,SW,225,8.3,9.8,48,0.00,,,0.00,meteobridge,2013-06-02 17:15:00,
2013-06-02 13:21:00,88.5,65.7,29.78,South,180,6.0,8.3,47,0.00,,,0.00,meteobridge,2013-06-02 17:21:00,
2013-06-02 13:27:00,86.9,65.5,29.77,SW,225,7.6,9.2,49,0.00,,,0.00,meteobridge,2013-06-02 17:27:00,
2013-06-02 13:32:00,88.0,65.8,29.77,West,270,4.5,5.4,48,0.00,,,0.00,meteobridge,2013-06-02 17:32:00,
2013-06-02 13:38:00,88.2,66.0,29.77,NE,45,11.4,11.4,48,0.00,,,0.00,meteobridge,2013-06-02 17:38:00,
2013-06-02 13:43:00,89.2,66.9,29.76,SE,135,3.1,6.0,48,0.00,,,0.00,meteobridge,2013-06-02 17:43:00,
2013-06-02 13:49:00,89.4,67.1,29.76,SE,135,13.0,13.0,48,0.00,,,0.00,meteobridge,2013-06-02 17:49:00,
2013-06-02 13:55:00,88.7,65.8,29.76,SE,135,3.1,6.0,47,0.00,,,0.00,meteobridge,2013-06-02 17:55:00,
2013-06-02 14:00:00,90.3,67.3,29.77,East,90,11.4,11.4,47,0.00,,,0.00,meteobridge,2013-06-02 18:00:00,
2013-06-02 14:06:00,87.4,65.3,29.77,SW,225,10.7,13.6,48,0.00,,,0.00,meteobridge,2013-06-02 18:06:00,
2013-06-02 14:12:00,87.3,65.1,29.77,SW,225,6.0,12.1,48,0.00,,,0.00,meteobridge,2013-06-02 18:12:00,
2013-06-02 14:17:00,87.6,66.0,29.77,SW,225,5.4,11.4,49,0.00,,,0.00,meteobridge,2013-06-02 18:17:00,
2013-06-02 14:23:00,86.0,64.6,29.77,South,180,5.4,10.7,49,0.00,,,0.00,meteobridge,2013-06-02 18:23:00,
2013-06-02 14:29:00,85.3,64.6,29.77,SE,135,10.7,10.7,50,0.00,,,0.00,meteobridge,2013-06-02 18:29:00,
2013-06-02 14:34:00,86.0,64.6,29.77,East,90,5.4,8.3,49,0.00,,,0.00,meteobridge,2013-06-02 18:34:00,
2013-06-02 14:40:00,86.5,65.7,29.76,East,90,6.0,7.6,50,0.00,,,0.00,meteobridge,2013-06-02 18:40:00,
2013-06-02 14:45:00,84.4,64.2,29.76,South,180,5.4,13.6,51,0.00,,,0.00,meteobridge,2013-06-02 18:45:00,
2013-06-02 14:50:00,85.1,64.9,29.76,South,180,3.8,11.4,51,0.00,,,0.00,meteobridge,2013-06-02 18:50:00,
2013-06-02 14:56:00,86.4,66.0,29.76,SW,225,12.1,12.1,51,0.00,,,0.00,meteobridge,2013-06-02 18:56:00,
2013-06-02 15:02:00,87.6,66.7,29.76,East,90,12.1,12.1,50,0.00,,,0.00,meteobridge,2013-06-02 19:02:00,
2013-06-02 15:07:00,88.2,66.0,29.76,West,270,9.2,13.0,48,0.00,,,0.00,meteobridge,2013-06-02 19:07:00,
2013-06-02 15:13:00,88.0,65.3,29.75,South,180,6.9,9.8,47,0.00,,,0.00,meteobridge,2013-06-02 19:13:00,
2013-06-02 15:19:00,86.9,65.5,29.75,South,180,10.7,13.6,49,0.00,,,0.00,meteobridge,2013-06-02 19:19:00,
2013-06-02 15:24:00,85.8,64.9,29.75,SE,135,5.4,13.6,50,0.00,,,0.00,meteobridge,2013-06-02 19:24:00,
2013-06-02 15:30:00,85.8,65.7,29.75,SE,135,3.8,6.0,51,0.00,,,0.00,meteobridge,2013-06-02 19:30:00,
2013-06-02 15:36:00,87.8,66.2,29.75,SW,225,7.6,7.6,49,0.00,,,0.00,meteobridge,2013-06-02 19:36:00,
2013-06-02 15:41:00,86.9,65.5,29.75,SW,225,4.5,7.6,49,0.00,,,0.00,meteobridge,2013-06-02 19:41:00,
2013-06-02 15:47:00,87.6,66.0,29.75,SE,135,6.0,15.9,49,0.00,,,0.00,meteobridge,2013-06-02 19:47:00,
2013-06-02 15:52:00,88.3,66.2,29.75,SE,135,5.4,11.4,48,0.00,,,0.00,meteobridge,2013-06-02 19:52:00,
2013-06-02 15:58:00,87.4,65.8,29.75,SW,225,8.3,11.4,49,0.00,,,0.00,meteobridge,2013-06-02 19:58:00,
2013-06-02 16:04:00,87.1,65.7,29.74,West,270,5.4,6.9,49,0.00,,,0.00,meteobridge,2013-06-02 20:04:00,
2013-06-02 16:09:00,86.5,65.1,29.74,South,180,8.3,9.2,49,0.00,,,0.00,meteobridge,2013-06-02 20:09:00,
2013-06-02 16:15:00,86.2,65.3,29.74,South,180,10.7,10.7,50,0.00,,,0.00,meteobridge,2013-06-02 20:15:00,
2013-06-02 16:21:00,85.8,65.7,29.74,South,180,4.5,6.9,51,0.00,,,0.00,meteobridge,2013-06-02 20:21:00,
2013-06-02 16:26:00,84.4,64.2,29.74,North,0,3.1,9.2,51,0.00,,,0.00,meteobridge,2013-06-02 20:26:00,
2013-06-02 16:32:00,84.0,64.6,29.74,North,0,6.9,9.2,52,0.00,,,0.00,meteobridge,2013-06-02 20:32:00,
2013-06-02 16:38:00,84.0,65.1,29.74,NE,45,4.5,9.2,53,0.00,,,0.00,meteobridge,2013-06-02 20:38:00,
2013-06-02 16:43:00,83.8,64.9,29.73,South,180,14.5,17.4,53,0.00,,,0.00,meteobridge,2013-06-02 20:43:00,
2013-06-02 16:49:00,85.1,65.5,29.74,SE,135,6.0,6.9,52,0.00,,,0.00,meteobridge,2013-06-02 20:49:00,
2013-06-02 16:54:00,84.0,65.7,29.74,East,90,11.4,11.4,54,0.00,,,0.00,meteobridge,2013-06-02 20:54:00,
2013-06-02 17:00:00,84.4,65.3,29.74,South,180,9.2,9.2,53,0.00,,,0.00,meteobridge,2013-06-02 21:00:00,
2013-06-02 17:06:00,84.9,65.8,29.73,SE,135,7.6,8.3,53,0.00,,,0.00,meteobridge,2013-06-02 21:06:00,
2013-06-02 17:11:00,85.1,66.0,29.73,South,180,4.5,9.2,53,0.00,,,0.00,meteobridge,2013-06-02 21:11:00,
2013-06-02 17:16:00,84.9,65.3,29.73,West,270,11.4,11.4,52,0.00,,,0.00,meteobridge,2013-06-02 21:16:00,
2013-06-02 17:22:00,85.5,65.8,29.73,South,180,4.5,4.5,52,0.00,,,0.00,meteobridge,2013-06-02 21:22:00,
2013-06-02 17:28:00,85.1,65.5,29.73,North,0,5.4,8.3,52,0.00,,,0.00,meteobridge,2013-06-02 21:28:00,
2013-06-02 17:33:00,86.0,65.8,29.72,East,90,6.0,6.9,51,0.00,,,0.00,meteobridge,2013-06-02 21:33:00,
2013-06-02 17:39:00,85.5,65.8,29.71,South,180,6.0,14.5,52,0.00,,,0.00,meteobridge,2013-06-02 21:39:00,
2013-06-02 17:45:00,83.7,64.8,29.73,SE,135,10.7,10.7,53,0.00,,,0.00,meteobridge,2013-06-02 21:45:00,
2013-06-02 17:50:00,83.3,64.4,29.74,SW,225,3.8,5.4,53,0.00,,,0.00,meteobridge,2013-06-02 21:50:00,
2013-06-02 17:56:00,83.1,64.8,29.74,South,180,2.2,13.6,54,0.00,,,0.00,meteobridge,2013-06-02 21:56:00,
2013-06-02 18:01:00,82.9,64.6,29.74,South,180,6.9,9.8,54,0.00,,,0.00,meteobridge,2013-06-02 22:01:00,
2013-06-02 18:07:00,82.0,63.7,29.74,SE,135,7.6,9.2,54,0.00,,,0.00,meteobridge,2013-06-02 22:07:00,
2013-06-02 18:13:00,81.9,63.5,29.74,South,180,3.8,9.2,54,0.00,,,0.00,meteobridge,2013-06-02 22:13:00,
2013-06-02 18:18:00,82.0,63.7,29.74,SW,225,5.4,7.6,54,0.00,,,0.00,meteobridge,2013-06-02 22:18:00,
2013-06-02 18:24:00,82.0,63.7,29.74,East,90,2.2,3.1,54,0.00,,,0.00,meteobridge,2013-06-02 22:24:00,
2013-06-02 18:30:00,84.0,65.7,29.75,NE,45,2.2,3.1,54,0.00,,,0.00,meteobridge,2013-06-02 22:30:00,
2013-06-02 18:35:00,84.4,65.3,29.74,South,180,4.5,4.5,53,0.00,,,0.00,meteobridge,2013-06-02 22:35:00,
2013-06-02 18:41:00,83.3,64.9,29.75,East,90,4.5,7.6,54,0.00,,,0.00,meteobridge,2013-06-02 22:41:00,
2013-06-02 18:47:00,81.9,63.5,29.75,SW,225,4.5,9.2,54,0.00,,,0.00,meteobridge,2013-06-02 22:47:00,
2013-06-02 18:52:00,83.7,65.3,29.75,West,270,4.5,4.5,54,0.00,,,0.00,meteobridge,2013-06-02 22:52:00,
2013-06-02 18:58:00,82.9,64.6,29.75,South,180,3.1,7.6,54,0.00,,,0.00,meteobridge,2013-06-02 22:58:00,
2013-06-02 19:03:00,82.9,64.6,29.75,South,180,4.5,4.5,54,0.00,,,0.00,meteobridge,2013-06-02 23:03:00,
2013-06-02 19:09:00,82.6,64.2,29.75,SW,225,5.4,10.7,54,0.00,,,0.00,meteobridge,2013-06-02 23:09:00,
2013-06-02 19:15:00,83.7,65.3,29.75,North,0,0.0,3.8,54,0.00,,,0.00,meteobridge,2013-06-02 23:15:00,
2013-06-02 19:20:00,83.7,65.3,29.75,SE,135,6.0,6.0,54,0.00,,,0.00,meteobridge,2013-06-02 23:20:00,
2013-06-02 19:26:00,83.5,65.1,29.76,West,270,3.1,4.5,54,0.00,,,0.00,meteobridge,2013-06-02 23:26:00,
2013-06-02 19:32:00,82.4,64.6,29.76,SE,135,5.4,5.4,55,0.00,,,0.00,meteobridge,2013-06-02 23:32:00,
2013-06-02 19:37:00,81.5,63.9,29.75,East,90,0.0,0.0,55,0.00,,,0.00,meteobridge,2013-06-02 23:37:00,
2013-06-02 19:43:00,80.1,63.9,29.76,SE,135,3.8,3.8,58,0.00,,,0.00,meteobridge,2013-06-02 23:43:00,
2013-06-02 19:49:00,81.1,64.4,29.76,East,90,0.0,3.1,57,0.00,,,0.00,meteobridge,2013-06-02 23:49:00,
2013-06-02 19:54:00,81.0,64.2,29.76,West,270,0.0,3.8,57,0.00,,,0.00,meteobridge,2013-06-02 23:54:00,
2013-06-02 20:00:00,79.5,63.9,29.76,East,90,0.0,0.0,59,0.00,,,0.00,meteobridge,2013-06-03 00:00:00,
2013-06-02 20:06:00,79.5,64.4,29.77,North,0,3.1,3.1,60,0.00,,,0.00,meteobridge,2013-06-03 00:06:00,
2013-06-02 20:11:00,80.1,64.4,29.77,South,180,0.7,4.5,59,0.00,,,0.00,meteobridge,2013-06-03 00:11:00,
2013-06-02 20:17:00,80.8,64.6,29.77,South,180,3.8,4.5,58,0.00,,,0.00,meteobridge,2013-06-03 00:17:00,
2013-06-02 20:22:00,80.8,64.0,29.77,South,180,3.1,4.5,57,0.00,,,0.00,meteobridge,2013-06-03 00:22:00,
2013-06-02 20:28:00,80.6,64.0,29.78,West,270,1.6,2.2,57,0.00,,,0.00,meteobridge,2013-06-03 00:28:00,
2013-06-02 20:34:00,80.1,63.5,29.77,South,180,3.1,5.4,57,0.00,,,0.00,meteobridge,2013-06-03 00:34:00,
2013-06-02 20:39:00,80.1,63.5,29.77,NE,45,5.4,5.4,57,0.00,,,0.00,meteobridge,2013-06-03 00:39:00,
2013-06-02 20:45:00,80.6,63.5,29.77,NE,45,3.1,3.1,56,0.00,,,0.00,meteobridge,2013-06-03 00:45:00,
2013-06-02 20:51:00,79.3,62.8,29.77,East,90,6.0,8.3,57,0.00,,,0.00,meteobridge,2013-06-03 00:51:00,
2013-06-02 20:56:00,79.5,63.0,29.78,East,90,4.5,5.4,57,0.00,,,0.00,meteobridge,2013-06-03 00:56:00,
2013-06-02 21:02:00,79.3,63.3,29.78,East,90,2.2,3.1,58,0.00,,,0.00,meteobridge,2013-06-03 01:02:00,
2013-06-02 21:08:00,78.3,62.2,29.78,SW,225,9.2,9.8,58,0.00,,,0.00,meteobridge,2013-06-03 01:08:00,
2013-06-02 21:13:00,79.3,62.8,29.78,NE,45,9.8,13.6,57,0.00,,,0.00,meteobridge,2013-06-03 01:13:00,
2013-06-02 21:19:00,79.5,62.4,29.78,East,90,6.9,11.4,56,0.00,,,0.00,meteobridge,2013-06-03 01:19:00,
2013-06-02 21:24:00,79.3,62.2,29.78,South,180,4.5,12.1,56,0.00,,,0.00,meteobridge,2013-06-03 01:24:00,
2013-06-02 21:30:00,79.2,61.5,29.78,SW,225,6.0,13.6,55,0.00,,,0.00,meteobridge,2013-06-03 01:30:00,
2013-06-02 21:36:00,79.9,62.2,29.78,SW,225,4.5,5.4,55,0.00,,,0.00,meteobridge,2013-06-03 01:36:00,
2013-06-02 21:41:00,79.2,61.5,29.78,SW,225,4.5,7.6,55,0.00,,,0.00,meteobridge,2013-06-03 01:41:00,
2013-06-02 21:47:00,79.3,61.7,29.79,SE,135,6.0,6.0,55,0.00,,,0.00,meteobridge,2013-06-03 01:47:00,
2013-06-02 21:53:00,79.2,61.5,29.78,SE,135,6.9,7.6,55,0.00,,,0.00,meteobridge,2013-06-03 01:53:00,
2013-06-02 21:58:00,79.0,61.5,29.78,West,270,6.0,14.5,55,0.00,,,0.00,meteobridge,2013-06-03 01:58:00,
2013-06-02 22:04:00,79.0,61.5,29.78,SW,225,4.5,12.1,55,0.00,,,0.00,meteobridge,2013-06-03 02:04:00,
2013-06-02 22:10:00,79.7,62.1,29.78,SW,225,6.0,6.0,55,0.00,,,0.00,meteobridge,2013-06-03 02:10:00,
2013-06-02 22:15:00,79.3,61.7,29.79,SW,225,3.1,6.0,55,0.00,,,0.00,meteobridge,2013-06-03 02:15:00,
2013-06-02 22:21:00,77.9,61.5,29.78,East,90,6.9,8.3,57,0.00,,,0.00,meteobridge,2013-06-03 02:21:00,
2013-06-02 22:27:00,78.1,61.5,29.79,South,180,5.4,5.4,57,0.00,,,0.00,meteobridge,2013-06-03 02:27:00,
2013-06-02 22:32:00,79.9,62.8,29.78,SE,135,4.5,4.5,56,0.00,,,0.00,meteobridge,2013-06-03 02:32:00,
2013-06-02 22:38:00,79.2,62.1,29.79,SW,225,4.5,5.4,56,0.00,,,0.00,meteobridge,2013-06-03 02:38:00,
2013-06-02 22:43:00,79.9,62.2,29.79,South,180,3.8,5.4,55,0.00,,,0.00,meteobridge,2013-06-03 02:43:00,
2013-06-02 22:49:00,78.8,61.3,29.78,West,270,6.0,6.0,55,0.00,,,0.00,meteobridge,2013-06-03 02:49:00,
2013-06-02 22:55:00,78.1,61.2,29.79,South,180,7.6,8.3,56,0.00,,,0.00,meteobridge,2013-06-03 02:55:00,
2013-06-02 23:00:00,79.5,61.9,29.79,West,270,3.8,5.4,55,0.00,,,0.00,meteobridge,2013-06-03 03:00:00,
2013-06-02 23:06:00,79.5,61.9,29.79,SW,225,3.8,3.8,55,0.00,,,0.00,meteobridge,2013-06-03 03:06:00,
2013-06-02 23:12:00,77.7,61.3,29.78,SE,135,3.8,6.0,57,0.00,,,0.00,meteobridge,2013-06-03 03:12:00,
2013-06-02 23:17:00,78.8,61.7,29.79,East,90,1.6,4.5,56,0.00,,,0.00,meteobridge,2013-06-03 03:17:00,
2013-06-02 23:23:00,77.2,61.3,29.79,East,90,0.7,0.7,58,0.00,,,0.00,meteobridge,2013-06-03 03:23:00,
2013-06-02 23:29:00,76.6,61.7,29.79,SE,135,4.5,5.4,60,0.00,,,0.00,meteobridge,2013-06-03 03:29:00,
2013-06-02 23:34:00,76.6,61.7,29.79,South,180,1.6,3.1,60,0.00,,,0.00,meteobridge,2013-06-03 03:34:00,
2013-06-02 23:40:00,76.1,61.7,29.79,West,270,0.0,1.6,61,0.00,,,0.00,meteobridge,2013-06-03 03:40:00,
2013-06-02 23:45:00,75.0,61.5,29.79,East,90,0.0,0.0,63,0.00,,,0.00,meteobridge,2013-06-03 03:45:00,
2013-06-02 23:51:00,73.9,61.0,29.79,West,270,0.0,1.6,64,0.00,,,0.00,meteobridge,2013-06-03 03:51:00,
2013-06-02 23:56:00,73.4,61.0,29.79,West,270,0.0,0.0,65,0.00,,,0.00,meteobridge,2013-06-03 03:56:00,